Location: Unspecified
(0.0000°N, 0.0000°E)
Time: 09:11:11
(UTC+00:00)

Vanguard 2 - Pass Details

Date: 23 October 2021
Orbit: 554 x 2936 km, 32.9° (Epoch: 06 December)

Event Time Altitude Azimuth Distance (km) Brightness Sun altitude
Rises 09:55:30 0° 307° (NW) 2,707 10.1 60.6°
Reaches altitude 10° 09:57:34 10° 309° (NW) 1,835 9.3 61.1°
Maximum altitude 10:01:33 79° 35° (NE) 640 8.5 62.0°
Drops below altitude 10° 10:06:47 10° 122° (ESE) 2,384 10.7 63.2°
Sets 10:09:49 0° 123° (ESE) 3,616 11.4 63.8°
